Location: Erdweis
(48.5167°N, 15.3500°E)
Time: 14:25:27
(UTC+00:00)

USA 234 - Pass Details

Date: 22 January 2021
Orbit: 1100 x 1107 km, 123.0° (Epoch: 01 March)

Event Time Altitude Azimuth Distance (km) Brightness Sun altitude
Exits shadow 17:11:13 20° 68° (ENE) 2,327 4.3 -14.6°
Maximum altitude 17:15:28 44° 7° (N) 1,490 3.8 -15.3°
Drops below altitude 10° 17:21:35 10° 298° (WNW) 2,968 6.3 -16.3°
Sets 17:24:11 0° 292° (WNW) 3,928 7.1 -16.7°
